www.pogodaiklimat.ru

Погода и климат >> Архив погоды >> Корея >> Тэгу


ПОГОДА в Тэгу

  • Прогноз погоды в Тэгу
  • Монитор погоды в Тэгу

АРХИВ ПОГОДЫ в Тэгу

Время (UTC), дата Ветер
(напр.,м/с)
 
Видим.   Явления Облачность Т
(С)
Тd
(С)
f
(%)
Тe
(С)
Тes
(С)
Комфортность P
(гПа)
Po
(гПа)
Тmin
(С)
Tmax
(С)
R
(мм)
R24
(мм)
S
(см)
15 12.08 штиль 0 20 км ясно +27.7 +23.5 78 +38 +38 очень
душно
1003.7 997.6
18 12.08 Ю 1 20 км ясно +25.8 +24.2 91 +36 +36 очень
душно
1003.0 996.9
21 12.08 штиль 0 19 км 3/0
[Ci sp]
+25.3 +24.2 94 +35 +35 очень
душно
1003.6 997.5
00 13.08 В 4 20 км 3/1 1000 м
[Sc Ci fib]
+29.0 +24.3 76 +41 +46 опасность
перегрева
1003.7 997.7 +25.0
03 13.08 19 км н/о +33.8 +22.8 53 +44 +47 опасность
перегрева
1003.0 997.0
06 13.08 В 5 20 км 4/4 600 м
[Cu med, cong]
+33.7 +23.3 55 +44 +48 опасность
перегрева
1001.7 995.7
09 13.08 ЮВ 6 20 км 1/1 1000 м
[Sc]
+32.4 +22.4 56 +42 +42 опасность
перегрева
1001.9 995.9
12 13.08 ЮВ 4 20 км ясно +28.1 +22.5 72 +37 +37 очень
душно
1003.5 997.4 +35.4
15 13.08 20 км н/о +27.3 +23.7 81 +37 +37 очень
душно
1003.8 997.7
18 13.08 Ю 2 20 км 9/9 600 м
[Sc]
+27.4 +23.4 79 +37 +37 очень
душно
1002.5 996.4
21 13.08 ЮВ 1 20 км 9// 600 м
[Sc]
+27.4 +23.0 77 +37 +37 очень
душно
1001.8 995.7
00 14.08 ЮВ 4 20 км 10/8 600 м
[Sc As op]
+28.4 +23.7 76 +39 +39 очень
душно
1001.3 995.3 +27.2
03 14.08 19 км н/о +32.9 +24.3 61 +45 +47 опасность
перегрева
999.6 993.6
06 14.08 В 6 20 км 8/8 1000 м
[Sc]
+32.1 +23.3 60 +43 +44 опасность
перегрева
998.6 992.6
09 14.08 В 3 20 км 10/10 1000 м
[Sc As op]
+30.0 +23.1 67 +40 +40 очень
душно
997.7 991.7
12 14.08 ЮВ 6 20 км 9/9 1000 м
[Sc]
+28.4 +22.3 70 +37 +37 очень
душно
998.0 992.0 +33.0
15 14.08 ЮВ 2 18 км слаб. дождь 10/9 1000 м
[Sc As op]
+26.0 +23.4 86 +35 +35 очень
душно
996.0 989.9
18 14.08 СЗ 1 20 км в посл. час дождь 10/9 600 м
[Sc As op]
+26.2 +23.8 87 +36 +36 очень
душно
993.9 987.8 0.5
21 14.08 штиль 0 20 км в посл. час дождь 10/10 600 м
[Sc As op]
+26.5 +24.7 90 +38 +38 очень
душно
992.8 986.8
00 15.08 З 3 20 км 10/8 600 м
[Sc As op]
+28.5 +24.2 78 +40 +40 очень
душно
991.1 985.1 +25.3 0.8
03 15.08 СЗ 3 20 км 10/10 1000 м
[Sc As op]
+29.8 +24.6 74 +42 +42 опасность
перегрева
989.3 983.4
06 15.08 З 6 6000 м слаб. дождь 10/10 600 м
[Sc As op]
+26.9 +26.7 99 +42 +42 опасность
перегрева
988.5 982.5 3
09 15.08 З 3 18 км слаб. дождь 10/10 600 м
[Frnb Ns]
+26.8 +26.4 98 +41 +41 опасность
перегрева
987.9 981.9
12 15.08 З 6 20 км 8/8 1000 м
[Sc]
+27.1 +25.1 89 +39 +39 очень
душно
988.8 982.8 +30.2 10
15 15.08 20 км н/о +26.5 +23.9 86 +37 +37 очень
душно
989.9 983.9
18 15.08 З 3 20 км 5/5 1000 м
[Sc]
+26.5 +22.7 80 +35 +35 очень
душно
991.4 985.4
21 15.08 СЗ 1 20 км 9// 1000 м
[Sc]
+26.5 +22.9 81 +35 +35 очень
душно
993.1 987.1
00 16.08 З 4 20 км 10/8 1000 м
[Sc As op]
+28.7 +23.3 73 +39 +39 очень
душно
994.7 988.7 +26.2 0.0
03 16.08 З 3 20 км в посл. час дождь 10/8 1000 м
[Sc As op]
+28.2 +23.1 74 +38 +38 очень
душно
995.6 989.6
06 16.08 З 3 19 км 6/5 1000 м
[Sc Ac trans]
+31.2 +22.5 60 +41 +45 опасность
перегрева
995.0 989.0 0.3
09 16.08 20 км н/о +31.8 +21.6 55 +40 +40 очень
душно
995.9 989.9
12 16.08 З 4 20 км 1/1 1000 м
[Sc]
+29.1 +20.5 60 +36 +36 очень
душно
998.6 992.6 +33.0 0.3
15 16.08 З 1 20 км ясно +27.4 +20.2 65 +34 +34 очень
душно
1000.3 994.2
18 16.08 С 2 18 км ясно +23.6 +21.1 86 +30 +30 очень
душно
1000.9 994.8
21 16.08 штиль 0 12 км ясно +22.1 +21.5 96 +29 +29 очень
душно
1002.5 996.3
00 17.08 В 2 17 км ясно +27.3 +21.3 70 +35 +43 очень
душно
1003.1 997.0 +22.1 0.0
03 17.08 З 3 19 км ясно +32.8 +15.3 35 +35 +50 душно 1002.0 996.0
06 17.08 З 3 19 км ясно +34.5 +17.2 36 +38 +48 очень
душно
1000.3 994.4
09 17.08 З 4 20 км 3/3 1000 м
[Sc]
+33.5 +18.8 42 +38 +39 очень
душно
1000.5 994.5
12 17.08 Ю 3 20 км 3/3 1000 м
[Sc]
+29.5 +21.4 62 +37 +37 очень
душно
1002.5 996.5 +35.1
15 17.08 ЮЗ 1 10 км 5/0
[Ac trans]
+27.9 +22.3 72 +37 +37 очень
душно
1004.0 997.9
18 17.08 С 2 8000 м в посл. час дождь 10/9 600 м
[Sc Ac trans]
+26.2 +23.6 86 +36 +36 очень
душно
1004.6 998.5 0.1
21 17.08 З 2 18 км 10/9 600 м
[Sc As op]
+26.1 +23.1 84 +35 +35 очень
душно
1005.4 999.3
00 18.08 З 5 20 км 3/0
[Ci sp]
+28.1 +17.0 51 +32 +36 душно 1007.2 1001.1 +25.5 0.1
03 18.08 С 2 19 км 4/0
[Cc]
+30.8 +16.0 41 +34 +51 опасность
солнечного
удара
1006.6 1000.6
06 18.08 С 2 20 км 3/1 1000 м
[Sc Ci fib]
+32.3 +13.0 31 +33 +44 жарко 1005.4 999.4
09 18.08 С 2 19 км 3/3 1000 м
[Sc]
+31.4 +15.3 38 +34 +34 душно 1005.4 999.4
12 18.08 Ю 4 10 км 8/4 1500 м
[Sc Ci fib]
+27.8 +22.0 71 +36 +36 очень
душно
1006.9 1000.8 +33.7 0.0
15 18.08 штиль 0 6000 м дымка ясно +25.5 +22.1 81 +33 +33 очень
душно
1008.1 1001.9
18 18.08 штиль 0 11 км 8/8 600 м
[Sc]
+24.8 +20.6 77 +31 +31 очень
душно
1008.5 1002.4
21 18.08 штиль 0 14 км 9/9 600 м
[Sc Ci fib]
+24.2 +19.6 76 +29 +29 душно 1009.2 1003.0
00 19.08 В 3 8000 м мгла 8/3 600 м
[St As trans]
+27.1 +21.3 71 +34 +37 очень
душно
1009.5 1003.4 +24.1 0.0
03 19.08 ЮВ 3 7000 м мгла 9/4 1000 м
[Sc As trans]
+30.1 +21.1 59 +38 +42 очень
душно
1009.2 1003.1
06 19.08 В 5 8000 м мгла 10/3 1000 м
[Sc As op]
+30.1 +22.5 64 +39 +40 очень
душно
1008.2 1002.1
09 19.08 В 4 8000 м мгла 10/5 1000 м
[Sc As op]
+27.6 +22.5 74 +36 +36 очень
душно
1008.6 1002.5
12 19.08 В 8 14 км 10/8 1500 м
[Sc As op]
+26.1 +21.9 78 +34 +34 очень
душно
1010.1 1003.9 +31.8

 

Местоположение метеостанции Тэгу (Корея): широта 35.88 долгота 128.61 высота над уровнем моря 59 м.

В архиве по умолчанию представлена погода в Тэгу за последнюю неделю. Архивные данные за месяц целиком и за предыдущие месяцы, начиная с января 2011 года, Вы можете получить, выбрав интересующий диапазон дат из раскрывающегося списка и нажав кнопку "Ввод!".


*Определитесь, кто Вы:
робот инопланетянин человек

Внимание! Время в таблицах - всемирное. Для получения местного времени необходимо прибавить поправку, которая равна 9 ч.

Смотрите также архив погоды в соседних городах и на ближайших метеорологических станциях:

Погода в Куми (Корея) (37 км)
Погода на Чупунджнеоне (Корея) (67 км)
Погода в Чинхэгу (Корея) (68 км)
Погода в Санджу (Корея) (71 км)
Погода в Пхохане (Корея) (71 км)
Погода в Ульсане (Корея) (73 км)
Погода в Андоне (Корея) (77 км)
Погода в Масане (Корея) (78 км)
Погода в Чинджу (Корея) (88 км)
Погода в Пусане (Корея) (95 км)

Пояснения к столбцам:

Ветер - указаны скорость ветра в м/с - средняя за 10 мин, порывы в срок и между сроками (в фигурных скобках) и направление, откуда дует ветер: С - северный, СВ - северо-восточный, В - восточный, ЮВ - юго-восточный, Ю - южный, ЮЗ - юго-западный, З - западный, СЗ - северо-западный.
Видимость - горизонтальная дальность видимости в метрах или километрах. При видимости от 1 до 10 км при отсутствии осадков обычно наблюдается дымка, при ухудшении видимости до 1 км и менее - туман. В сухую погоду видимость может ухудшаться дымом, пылью или мглою.
Явления - указаны атмосферные явления, наблюдавшиеся в срок или в последний час перед сроком; фигурными скобками обозначены явления, наблюдавшиеся между сроками (за 1-3 часа до срока); квадратными скобками обозначены град или гололедные отложения с указанием их диаметра в мм.
Облачность - указаны через наклонную черту общая и нижняя облачность в баллах и высота нижней границы облаков в метрах; квадратными скобками обозначены формы облаков: Ci - перистые, Cs - перисто-слоистые, Cc - перисто-кучевые, Ac - высококучевые, As - высокослоистые, Sc - слоисто-кучевые, Ns - слоисто-дождевые, Cu - кучевые, Cb - кучево-дождевые. Подробнее классификацию облаков см. в Атласе облаков (PDF).
T - Температура воздуха - температура, измеренная на высоте 2 м над землей.
Td - Температура точки росы - температура, при понижении до которой содержащийся в воздухе водяной пар достигнет насыщения.
f - Относительная влажность воздуха - влажноcть воздуха, измеренная на высоте 2 м над землей.
Te - Эффективная температура - температура, которую ощущает одетый по сезону человек в тени. Характеристика душности погоды. При расчете учитывается влияние влажности воздуха и скорости ветра на теплоощущения человека.
Tes - Эффективная температура на солнце - температура, которую ощущает человек, с поправкой на солнечный нагрев. Характеристика знойности погоды. Зависит от высоты солнца над горизонтом, облачности и скорости ветра. Ночью, в пасмурную погоду, а также при ветре 12 м/с и более поправка равна нулю.
P - Атмосферное давление - приведенное к уровню моря атмосферное давление.
Po - Атмосферное давление - измеренное на уровне метеостанции атмосферное давление.
Tmin - Минимальная температура - минимум температуры воздуха на высоте 2 м над землей.
Tmax - Максимальная температура - максимум температуры воздуха на высоте 2 м над землей.
R - Количество осадков - Количество выпавших осадков за период времени, мм. При наведении курсора мыши на число - период времени, за который выпало указанное количество осадков.
R24 - Количество осадков - Количество выпавших осадков за 24 часа, мм.
S - Снежный покров - Высота снежного покрова, см. При наведении курсора мыши на число - состояние снежного покрова и степень покрытия местности в баллах.